Погода в Уфе-Шигирях

Россия / Свердловская область     56°26′53″N   58°55′32″E
темп.,
°C
ветер,
м/с
пор.,
м/с
влажн.,
%
обл.,
%
осадки,
мм/ч
давл.,
гПа
погр.,
м
24 января, пн
пн2423:00−15вюв1198100 0.0 10389
02:00−16в1198100 0.0 10379
05:00−14ююв0097100 0.0 103811
08:00−12ююз1297100 0.0 103740
11:00−10ююз1291100 0.0 1037109
14:00−8зюз2587100 0.0 1036298
17:00−9зюз2496100 0.0 1036153
20:00−12юз2399100 0.1 103652
25 января, вт
вт2523:00−16юз1110099 0.1 10369
02:00−18юз1110098 0.1 103610
05:00−17ююз11100100 0.1 103429
08:00−17ююз11100100 0.0 103326
11:00−14юз2894100 0.0 1032190
14:00−10зюз2689100 0.0 1030289
17:00−13юз119878 0.0 103011
20:00−18юз1110079 0.0 103110
26 января, ср
ср2623:00−19ю1110087 0.0 103110
02:00−21ю1110064 0.0 103110
05:00−21ю1110061 0.0 10309
08:00−22ююв1110067 0.0 102910
11:00−14ю139369 0.0 102781
14:00−8ю238576 0.0 1026219
17:00−12юв119673 0.0 102610
20:00−15в1198100 0.0 10259
27 января, чт
чт2723:00−16в1198100 0.0 10249
02:00−14ююв1196100 0.0 102210
05:00−11ю1394100 0.0 102182
08:00−12ююв2598100 0.1 1021105
11:00−7юз4109299 0.1 1021624
14:00−7юз41091100 0.1 1021679
17:00−8ююз3795100 0.2 1022264
20:00−13ю11100100 0.1 102312
28 января, пт
пт2823:00−14юв1199100 0.1 102310
02:00−12вюв1198100 0.0 102217
05:00−9в1197100 0.0 102113
08:00−11всв1197100 0.0 102010
11:00−8вюв1192100 0.0 101851
14:00−5вюв0187100 0.0 1017185
17:00−7св0096100 0.0 101710
20:00−10всв119876 0.0 101710